Torna al catalogo

CZ-6A DEB

AttivoSSO
NORAD 54526·DEBRIS·🇨🇳 China

Lanciato Nov 11, 2022 da Taiyuan Satellite Launch Center

Loading…

Prossimi Passaggi (prossime 24 ore)

TLE

AggiornatoSource: Space-Track

Epoca: Sep 14, 2026, 10:53 UTC

1 54526U 22151KE  26257.45354501  .00000153  00000-0  10917-3 0  9992
2 54526  98.8473 254.6994 0055516 108.9100 251.8100 14.10164350197271

Traccia CZ-6A DEB in tempo reale con AllMySat

Download on the App Store